Date,Time,Wetness (Wet Dry or Ice),Wind Speed (m/s),Temperature (C),Humidity (%),Pressure (mb),Radiation (W/m^2)
2020-05-28,02:30:00,DRY,3.60,14.17,26.0,778.00,1.3
2020-05-28,02:35:00,DRY,4.15,14.10,26.0,778.00,1.7
2020-05-28,02:40:00,DRY,3.30,14.07,26.0,778.00,2.0
2020-05-28,02:45:00,DRY,3.50,14.10,26.0,778.00,1.2
2020-05-28,02:50:00,DRY,3.07,14.07,26.0,778.00,1.4
2020-05-28,02:55:00,DRY,3.50,14.00,26.0,778.00,1.1
2020-05-28,03:00:00,DRY,3.77,14.03,26.0,778.00,1.1
2020-05-28,03:05:00,DRY,3.30,14.00,26.0,778.00,1.1
2020-05-28,03:10:00,DRY,3.33,13.93,26.7,778.00,1.2
2020-05-28,03:15:00,DRY,3.45,13.90,27.0,778.00,1.2
2020-05-28,03:20:00,DRY,3.30,13.87,27.0,778.00,1.3
2020-05-28,03:25:00,DRY,3.05,13.75,27.0,778.00,1.4
2020-05-28,03:30:00,DRY,3.03,13.87,27.0,778.00,1.1
2020-05-28,03:35:00,DRY,3.05,13.80,27.0,778.00,1.6
2020-05-28,03:40:00,DRY,2.90,13.80,27.0,778.00,1.4
2020-05-28,03:45:00,DRY,3.10,13.80,27.0,778.00,0.8
2020-05-28,03:50:00,DRY,2.90,13.80,27.0,778.00,1.1
2020-05-28,03:55:00,DRY,2.95,13.75,27.0,778.00,1.2
2020-05-28,04:00:00,DRY,2.93,13.70,27.0,778.00,0.9
2020-05-28,04:05:00,DRY,3.05,13.80,27.0,778.00,1.4
2020-05-28,04:10:00,DRY,2.63,13.87,27.0,778.00,1.5
2020-05-28,04:15:00,DRY,3.05,13.90,27.0,778.00,1.0
2020-05-28,04:20:00,DRY,2.80,13.93,26.7,778.00,2.0
2020-05-28,04:25:00,DRY,2.40,13.80,27.0,778.00,1.1
2020-05-28,04:30:00,DRY,2.73,13.90,26.7,778.00,1.1
2020-05-28,04:35:00,DRY,2.60,13.85,27.0,778.00,0.8
2020-05-28,04:40:00,DRY,2.40,13.83,27.0,778.00,1.0
2020-05-28,04:45:00,DRY,2.75,13.90,27.0,778.00,1.0
2020-05-28,04:50:00,DRY,2.63,13.90,27.0,778.00,1.0
2020-05-28,04:55:00,DRY,2.70,13.85,27.0,778.00,0.9
2020-05-28,05:00:00,DRY,2.43,13.77,27.7,778.00,1.0
2020-05-28,05:05:00,DRY,2.90,13.90,27.0,778.00,1.1
2020-05-28,05:10:00,DRY,2.90,14.07,27.0,778.00,1.0
2020-05-28,05:15:00,DRY,3.00,13.90,27.0,778.00,1.1
2020-05-28,05:20:00,DRY,3.37,14.07,26.3,778.00,1.8
2020-05-28,05:25:00,DRY,2.95,14.00,27.0,778.00,0.9
2020-05-28,05:30:00,DRY,2.53,13.93,26.7,778.00,1.0
2020-05-28,05:35:00,DRY,2.85,14.05,25.0,778.00,1.2
2020-05-28,05:40:00,DRY,3.00,14.00,25.3,778.00,1.7
2020-05-28,05:45:00,DRY,3.10,14.20,26.0,778.00,1.2
2020-05-28,05:50:00,DRY,3.07,14.13,26.0,778.00,1.7
2020-05-28,05:55:00,DRY,3.40,14.10,25.0,778.00,1.1
2020-05-28,06:00:00,DRY,3.23,14.10,24.7,778.00,2.0
2020-05-28,06:05:00,DRY,3.60,14.20,23.0,778.00,3.2
2020-05-28,06:10:00,DRY,3.20,14.13,23.0,778.00,5.0
2020-05-28,06:15:00,DRY,3.40,13.95,23.0,778.00,7.5
2020-05-28,06:20:00,DRY,3.30,14.07,23.0,778.00,11.7
2020-05-28,06:25:00,DRY,3.00,14.05,23.0,778.00,17.4
2020-05-28,06:30:00,DRY,3.50,14.00,23.0,778.00,29.9
2020-05-28,06:35:00,DRY,3.05,14.10,23.0,778.00,47.0
2020-05-28,06:40:00,DRY,3.73,14.43,21.7,778.00,67.6
2020-05-28,06:45:00,DRY,3.35,14.50,21.5,778.00,88.4
2020-05-28,06:50:00,DRY,2.90,14.57,21.0,778.00,107.4
2020-05-28,06:55:00,DRY,3.35,14.65,20.5,778.00,128.1
2020-05-28,07:00:00,DRY,3.17,14.77,21.0,778.00,148.7
2020-05-28,07:05:00,DRY,3.30,14.85,21.5,778.00,169.2
2020-05-28,07:10:00,DRY,2.97,15.00,21.3,778.00,192.3
2020-05-28,07:15:00,DRY,3.20,15.10,21.0,778.00,216.5
2020-05-28,07:20:00,DRY,3.30,15.27,22.0,778.00,242.5
2020-05-28,07:25:00,DRY,3.05,15.45,22.0,778.00,266.2
2020-05-28,07:30:00,DRY,3.07,15.57,22.3,778.00,290.0
2020-05-28,07:35:00,DRY,2.65,15.65,22.0,778.00,309.6
2020-05-28,07:40:00,DRY,2.43,15.73,22.0,778.00,331.7
2020-05-28,07:45:00,DRY,2.50,15.90,21.0,778.00,356.9
2020-05-28,07:50:00,DRY,2.70,16.20,22.0,778.00,380.5
2020-05-28,07:55:00,DRY,3.80,16.20,22.0,778.00,401.9
2020-05-28,08:00:00,DRY,2.63,16.20,21.3,778.00,422.9
2020-05-28,08:05:00,DRY,2.85,16.35,21.0,778.00,431.6
2020-05-28,08:10:00,DRY,2.57,16.30,21.0,778.00,460.2
2020-05-28,08:15:00,DRY,2.15,16.35,22.0,778.00,489.5
2020-05-28,08:20:00,DRY,2.07,16.47,22.0,778.00,513.5
2020-05-28,08:25:00,DRY,2.55,17.10,21.5,778.00,535.8
2020-05-28,08:30:00,DRY,2.63,16.80,22.0,778.00,558.9
2020-05-28,08:35:00,DRY,2.00,16.70,23.0,778.00,573.2
2020-05-28,08:40:00,DRY,1.97,16.73,23.7,778.00,602.5
2020-05-28,08:45:00,DRY,2.80,16.65,24.0,778.00,621.5
2020-05-28,08:50:00,DRY,1.67,16.73,23.7,778.00,591.0
2020-05-28,08:55:00,DRY,2.95,17.30,24.5,778.00,595.9
2020-05-28,09:00:00,DRY,2.67,17.00,24.3,778.00,637.4
2020-05-28,09:05:00,DRY,1.85,16.85,25.0,778.00,625.3
2020-05-28,09:10:00,DRY,1.80,17.13,24.7,778.00,613.3
2020-05-28,09:15:00,DRY,2.35,17.20,25.5,778.00,695.2
2020-05-28,09:20:00,DRY,1.97,17.37,24.3,778.00,739.9
2020-05-28,09:25:00,DRY,3.30,17.70,25.5,778.00,791.0
2020-05-28,09:30:00,DRY,1.87,17.40,25.0,778.00,800.7
2020-05-28,09:35:00,DRY,2.65,17.80,25.0,778.00,826.4
2020-05-28,09:40:00,DRY,1.17,17.37,24.3,778.00,840.9
2020-05-28,09:45:00,DRY,2.50,17.40,26.0,778.00,833.7
2020-05-28,09:50:00,DRY,1.77,17.57,26.0,778.00,858.0
2020-05-28,09:55:00,DRY,2.30,17.70,25.5,778.00,896.0
2020-05-28,10:00:00,DRY,2.43,17.57,24.7,778.00,911.7
2020-05-28,10:05:00,DRY,2.10,17.80,26.0,778.00,933.0
2020-05-28,10:10:00,DRY,3.23,17.87,26.0,778.00,948.2
2020-05-28,10:15:00,DRY,2.55,17.80,26.0,778.00,933.8
2020-05-28,10:20:00,DRY,2.77,17.80,28.0,778.00,962.8
2020-05-28,10:25:00,DRY,3.45,17.85,27.5,778.00,991.3
2020-05-28,10:30:00,DRY,3.10,18.03,27.7,778.00,1007.0
2020-05-28,10:35:00,DRY,2.40,17.95,28.0,778.00,1025.1
2020-05-28,10:40:00,DRY,3.43,18.33,28.7,778.00,1027.4
2020-05-28,10:45:00,DRY,2.00,18.65,27.0,778.00,1036.8
2020-05-28,10:50:00,DRY,2.93,18.63,29.3,778.00,1027.1
2020-05-28,10:55:00,DRY,2.95,18.70,30.5,778.00,1076.6
2020-05-28,11:00:00,DRY,3.47,18.27,31.3,778.00,1100.7
2020-05-28,11:05:00,DRY,3.00,18.55,30.0,778.00,1041.9
2020-05-28,11:10:00,DRY,3.40,18.33,30.7,778.00,1048.4
2020-05-28,11:15:00,DRY,3.45,18.45,31.5,778.00,1177.7
2020-05-28,11:20:00,DRY,3.73,18.47,29.3,778.00,1085.0
2020-05-28,11:25:00,DRY,4.20,18.45,28.5,778.00,854.8
2020-05-28,11:30:00,DRY,3.23,17.87,28.7,778.00,637.1
2020-05-28,11:35:00,DRY,3.55,17.75,29.5,778.00,1028.0
2020-05-28,11:40:00,DRY,2.70,18.27,28.3,778.00,1206.0
2020-05-28,11:45:00,DRY,3.50,18.65,28.5,778.00,1139.5
2020-05-28,11:50:00,DRY,2.50,18.33,27.7,778.00,1190.5
2020-05-28,11:55:00,DRY,2.95,18.15,27.5,778.00,1123.0
2020-05-28,12:00:00,DRY,2.60,18.77,27.7,778.00,1182.8
2020-05-28,12:05:00,DRY,2.00,18.00,29.0,778.00,1112.8
2020-05-28,12:10:00,DRY,3.13,18.60,29.3,778.00,1161.9
2020-05-28,12:15:00,DRY,1.65,18.90,29.5,778.00,1134.5
2020-05-28,12:20:00,DRY,2.43,19.03,29.7,778.00,1113.0
2020-05-28,12:25:00,DRY,2.35,19.10,29.0,778.00,1011.2
2020-05-28,12:30:00,DRY,2.87,18.93,30.0,778.00,1146.4
2020-05-28,12:35:00,DRY,2.35,17.60,31.0,778.00,890.8
2020-05-28,12:40:00,DRY,2.43,17.50,32.3,778.00,638.1
2020-05-28,12:45:00,DRY,1.80,18.00,32.0,778.00,1121.4
2020-05-28,12:50:00,DRY,2.17,18.73,31.0,778.00,1294.3
2020-05-28,12:55:00,DRY,2.65,19.75,30.5,778.00,1336.8
2020-05-28,13:00:00,DRY,3.33,19.83,28.3,778.00,1323.2
2020-05-28,13:05:00,DRY,3.40,19.70,31.5,778.00,1309.7
2020-05-28,13:10:00,DRY,3.77,19.73,31.0,778.00,1261.6
2020-05-28,13:15:00,DRY,3.00,18.75,31.0,778.00,1267.6
2020-05-28,13:20:00,DRY,3.30,19.00,33.0,778.00,1319.0
2020-05-28,13:25:00,DRY,3.40,18.95,32.0,778.00,1358.8
2020-05-28,13:30:00,DRY,4.10,19.10,33.0,778.00,1373.7
2020-05-28,13:35:00,DRY,2.60,19.60,26.0,778.00,1252.6
2020-05-28,13:40:00,DRY,3.10,19.27,31.7,778.00,1153.0
2020-05-28,13:45:00,DRY,3.95,19.40,31.5,778.00,759.3
2020-05-28,13:50:00,DRY,2.67,18.73,31.3,778.00,840.2
2020-05-28,13:55:00,DRY,2.00,18.00,32.5,778.00,759.0
2020-05-28,14:00:00,DRY,1.30,17.93,28.7,778.00,869.9
2020-05-28,14:05:00,DRY,2.15,18.50,23.5,778.00,892.2
2020-05-28,14:10:00,DRY,1.83,18.37,26.0,778.00,903.7
2020-05-28,14:15:00,DRY,2.35,19.10,31.0,778.00,972.1
2020-05-28,14:20:00,DRY,2.10,18.67,31.3,778.00,668.2
2020-05-28,14:25:00,DRY,1.80,18.20,33.5,778.00,777.2
2020-05-28,14:30:00,DRY,1.83,18.27,32.7,778.00,922.8
2020-05-28,14:35:00,DRY,2.00,18.30,32.0,778.00,1081.3
2020-05-28,14:40:00,DRY,2.33,18.93,27.7,778.00,1146.8
2020-05-28,14:45:00,DRY,2.15,18.25,27.5,778.00,799.6
2020-05-28,14:50:00,DRY,2.23,18.53,31.3,778.00,905.4
2020-05-28,14:55:00,DRY,2.50,18.45,32.5,778.00,965.7
2020-05-28,15:00:00,DRY,2.90,18.70,33.7,778.00,1049.0
2020-05-28,15:05:00,DRY,2.15,19.35,31.0,778.00,1216.5
2020-05-28,15:10:00,DRY,2.67,18.77,31.3,777.67,1199.8
2020-05-28,15:15:00,DRY,3.65,19.05,31.5,777.50,1110.3
2020-05-28,15:20:00,DRY,2.70,18.93,28.0,777.67,933.8
2020-05-28,15:25:00,DRY,1.70,18.85,29.5,777.50,1024.5
2020-05-28,15:30:00,DRY,2.33,18.53,28.7,777.33,875.1
2020-05-28,15:35:00,DRY,1.45,18.35,22.5,777.50,425.9
2020-05-28,15:40:00,DRY,2.33,18.40,26.7,777.00,1001.8
2020-05-28,15:45:00,DRY,0.60,18.65,28.0,777.50,1042.2
2020-05-28,15:50:00,DRY,2.97,19.30,27.0,777.33,1066.3
2020-05-28,15:55:00,DRY,1.40,19.35,23.5,777.00,1003.9
2020-05-28,16:00:00,DRY,2.80,19.30,24.7,777.33,971.9
2020-05-28,16:05:00,DRY,2.65,18.50,24.0,777.00,955.2
2020-05-28,16:10:00,DRY,3.27,19.03,25.7,777.00,891.6
2020-05-28,16:15:00,DRY,3.00,18.70,27.0,777.00,899.2
2020-05-28,16:20:00,DRY,3.00,19.03,24.7,777.00,876.4
2020-05-28,16:25:00,DRY,3.00,19.05,26.5,777.00,859.1
2020-05-28,16:30:00,DRY,2.77,18.97,22.0,777.00,840.5
2020-05-28,16:35:00,DRY,2.60,18.55,22.5,777.00,822.5
2020-05-28,16:40:00,DRY,1.83,18.57,21.3,777.00,803.0
2020-05-28,16:45:00,DRY,2.00,18.90,23.0,777.00,784.0
2020-05-28,16:50:00,DRY,0.73,18.63,20.7,777.00,768.3
2020-05-28,16:55:00,DRY,2.50,18.85,22.0,777.00,749.2
2020-05-28,17:00:00,DRY,3.17,18.43,22.0,777.00,731.7
2020-05-28,17:05:00,DRY,1.75,18.55,22.0,777.00,713.9
2020-05-28,17:10:00,DRY,3.20,18.77,21.7,777.00,670.1
2020-05-28,17:15:00,DRY,5.50,18.05,21.5,777.00,675.5
2020-05-28,17:20:00,DRY,2.27,18.10,22.0,777.00,629.6
2020-05-28,17:25:00,DRY,1.80,18.10,20.5,777.00,601.6
2020-05-28,17:30:00,DRY,2.43,18.20,22.0,777.00,572.8
2020-05-28,17:35:00,DRY,4.30,18.25,21.5,777.00,541.9
2020-05-28,17:40:00,DRY,1.77,18.17,22.7,777.00,512.8
2020-05-28,17:45:00,DRY,2.85,18.15,21.5,777.00,521.5
2020-05-28,17:50:00,DRY,2.33,18.10,22.3,777.00,507.6
2020-05-28,17:55:00,DRY,1.90,18.00,21.5,777.00,384.5
2020-05-28,18:00:00,DRY,3.50,17.47,23.7,777.00,173.0
2020-05-28,18:05:00,DRY,1.65,16.85,25.0,777.00,133.0
2020-05-28,18:10:00,DRY,1.97,16.47,25.7,777.00,107.7
2020-05-28,18:15:00,DRY,2.00,16.15,26.0,777.00,107.6
2020-05-28,18:20:00,DRY,3.10,15.90,26.3,777.00,145.6
2020-05-28,18:25:00,DRY,2.60,15.85,26.0,777.00,135.8
2020-05-28,18:30:00,DRY,3.73,15.60,26.0,777.00,89.5
2020-05-28,18:35:00,DRY,3.95,15.50,26.0,777.00,86.8
2020-05-28,18:40:00,DRY,4.23,15.37,27.0,777.00,87.4
2020-05-28,18:45:00,DRY,3.75,15.25,26.5,777.00,89.8
2020-05-28,18:50:00,DRY,5.17,15.23,27.0,777.00,92.2
2020-05-28,18:55:00,DRY,4.10,15.05,27.0,777.00,92.8
2020-05-28,19:00:00,DRY,5.00,15.07,27.0,777.00,90.1
2020-05-28,19:05:00,DRY,4.65,15.10,27.0,777.00,84.0
2020-05-28,19:10:00,DRY,3.33,15.03,27.0,777.00,76.5
2020-05-28,19:15:00,DRY,3.75,15.10,27.0,777.00,67.4
2020-05-28,19:20:00,DRY,4.80,15.03,27.0,777.00,59.9
2020-05-28,19:25:00,DRY,3.95,15.00,27.0,777.00,58.2
2020-05-28,19:30:00,DRY,3.90,15.03,27.0,777.00,65.5
2020-05-28,19:35:00,DRY,4.80,15.05,27.0,777.00,51.2
2020-05-28,19:40:00,DRY,4.63,15.00,27.0,777.00,46.2
2020-05-28,19:45:00,DRY,5.40,15.00,27.0,777.00,31.7
2020-05-28,19:50:00,DRY,3.30,14.87,27.7,777.00,20.6
2020-05-28,19:55:00,DRY,4.55,14.80,28.0,777.00,11.8
2020-05-28,20:00:00,DRY,4.30,14.70,28.0,777.00,6.4
2020-05-28,20:05:00,DRY,5.05,14.65,28.0,777.00,4.4
2020-05-28,20:10:00,DRY,4.80,14.60,28.0,777.00,8.9
2020-05-28,20:15:00,DRY,5.05,14.55,28.0,777.00,3.5
2020-05-28,20:20:00,DRY,4.20,14.47,28.0,777.00,1.6
2020-05-28,20:25:00,DRY,5.80,14.50,28.0,777.00,1.2
2020-05-28,20:30:00,DRY,4.73,14.40,28.0,777.00,1.3
2020-05-28,20:35:00,DRY,4.80,14.25,28.0,777.00,1.1
2020-05-28,20:40:00,DRY,4.60,14.27,28.0,777.00,1.0
2020-05-28,20:45:00,DRY,3.90,14.30,28.0,777.50,1.5
2020-05-28,20:50:00,DRY,5.03,14.30,28.0,777.67,0.7
2020-05-28,20:55:00,DRY,5.10,14.30,28.0,777.00,1.3
2020-05-28,21:00:00,DRY,5.43,14.33,28.0,777.67,1.1
2020-05-28,21:05:00,DRY,6.10,14.30,28.0,777.00,1.0
2020-05-28,21:10:00,DRY,6.43,14.27,29.0,778.00,1.0
2020-05-28,21:15:00,DRY,3.65,14.25,29.0,778.00,1.1
2020-05-28,21:20:00,DRY,4.07,14.23,29.0,778.00,1.1
2020-05-28,21:25:00,DRY,5.10,14.20,28.5,778.00,1.1
2020-05-28,21:30:00,DRY,5.50,14.17,29.0,778.00,1.2
2020-05-28,21:35:00,DRY,2.50,14.15,29.0,778.00,1.9
2020-05-28,21:40:00,DRY,5.40,14.07,29.0,777.67,1.1
2020-05-28,21:45:00,DRY,4.45,14.05,29.0,778.00,0.9
2020-05-28,21:50:00,DRY,4.73,14.00,29.0,778.00,1.4
2020-05-28,21:55:00,DRY,6.25,14.00,29.0,778.00,1.1
2020-05-28,22:00:00,DRY,6.00,13.97,29.0,778.00,1.0
2020-05-28,22:05:00,DRY,4.90,13.95,29.0,778.00,1.1
2020-05-28,22:10:00,DRY,4.43,13.90,29.0,777.67,1.4
2020-05-28,22:15:00,DRY,2.70,13.90,29.0,778.00,1.2
2020-05-28,22:20:00,DRY,4.47,13.87,29.0,778.00,1.1
2020-05-28,22:25:00,DRY,5.40,13.80,29.0,777.50,1.1
2020-05-28,22:30:00,DRY,4.33,13.90,29.0,778.00,1.0
2020-05-28,22:35:00,DRY,3.20,13.80,29.0,778.00,1.6
2020-05-28,22:40:00,DRY,6.20,13.80,29.0,778.00,1.1
2020-05-28,22:45:00,DRY,8.30,13.80,29.0,777.00,0.9
2020-05-28,22:50:00,DRY,6.60,13.77,29.0,777.33,1.3
2020-05-28,22:55:00,DRY,5.35,13.80,29.0,777.50,1.7
2020-05-28,23:00:00,DRY,6.10,13.80,29.0,777.67,1.0
2020-05-28,23:05:00,DRY,5.05,13.90,28.5,777.50,1.1
2020-05-28,23:10:00,DRY,5.63,13.87,28.0,777.00,1.2
2020-05-28,23:15:00,DRY,6.10,13.85,28.0,777.50,1.1
2020-05-28,23:20:00,DRY,6.93,13.93,28.0,777.00,0.8
2020-05-28,23:25:00,DRY,4.80,14.00,27.5,777.00,1.2
2020-05-28,23:30:00,DRY,6.83,13.93,27.0,777.00,1.2
2020-05-28,23:35:00,DRY,6.85,14.00,27.0,777.00,1.2
2020-05-28,23:40:00,DRY,5.37,14.03,27.7,777.00,0.9
2020-05-28,23:45:00,DRY,3.55,14.00,27.5,777.00,1.1
2020-05-28,23:50:00,DRY,4.17,14.00,28.0,777.00,0.4
2020-05-28,23:55:00,DRY,5.20,13.95,28.0,777.00,0.8
2020-05-29,00:00:00,DRY,5.23,13.93,27.3,777.00,1.1
2020-05-29,00:05:00,DRY,5.35,13.95,28.0,777.00,1.4
2020-05-29,00:10:00,DRY,6.03,13.90,28.0,777.00,1.2
2020-05-29,00:15:00,DRY,4.40,14.00,28.0,777.00,1.2
2020-05-29,00:20:00,DRY,5.40,13.90,27.3,777.00,1.4
2020-05-29,00:25:00,DRY,4.75,13.95,27.0,777.00,1.6
2020-05-29,00:30:00,DRY,5.23,13.90,27.7,777.00,1.1
2020-05-29,00:35:00,DRY,3.00,13.90,27.5,777.00,1.0
2020-05-29,00:40:00,DRY,4.43,13.87,27.0,777.00,1.0
2020-05-29,00:45:00,DRY,6.25,13.90,27.0,777.00,0.9
2020-05-29,00:50:00,DRY,6.07,13.90,26.3,777.00,1.2
2020-05-29,00:55:00,DRY,4.80,13.80,26.0,777.00,0.8
2020-05-29,01:00:00,DRY,6.50,13.77,25.0,777.00,1.3
2020-05-29,01:05:00,DRY,6.50,13.85,24.0,776.50,1.5
2020-05-29,01:10:00,DRY,4.90,13.87,23.3,776.33,1.1
2020-05-29,01:15:00,DRY,3.95,13.85,23.0,776.50,1.2
2020-05-29,01:20:00,DRY,3.27,13.90,22.7,776.00,1.0
2020-05-29,01:25:00,DRY,5.40,13.80,22.0,776.00,1.2
2020-05-29,01:30:00,DRY,6.50,13.97,20.0,776.00,1.3
2020-05-29,01:35:00,DRY,3.55,13.95,19.5,776.00,0.6
2020-05-29,01:40:00,DRY,6.13,13.93,18.7,776.00,1.0
2020-05-29,01:45:00,DRY,3.40,14.10,17.0,776.00,1.1
2020-05-29,01:50:00,DRY,5.53,14.20,15.3,776.00,0.9
2020-05-29,01:55:00,DRY,4.00,14.00,16.0,776.00,1.1
2020-05-29,02:00:00,DRY,5.63,13.80,16.0,776.00,1.2
2020-05-29,02:05:00,DRY,4.45,13.85,15.0,776.00,0.6
2020-05-29,02:10:00,DRY,4.83,13.80,15.0,776.00,1.1
2020-05-29,02:15:00,DRY,5.30,14.05,13.5,776.00,0.9
2020-05-29,02:20:00,DRY,5.17,14.20,13.0,776.00,1.2
2020-05-29,02:25:00,DRY,4.45,14.25,13.0,776.00,1.2
2020-05-29,02:30:00,DRY,3.20,14.33,11.7,776.00,1.4
2020-05-29,02:35:00,DRY,3.10,14.40,11.5,776.00,1.6
2020-05-29,02:40:00,DRY,4.20,14.83,13.0,776.00,1.5
2020-05-29,02:45:00,DRY,3.55,15.00,13.0,776.00,1.3
2020-05-29,02:50:00,DRY,2.40,15.07,13.3,775.33,1.2
2020-05-29,02:55:00,DRY,3.40,15.10,14.0,775.50,1.1
2020-05-29,03:00:00,DRY,3.03,15.20,13.0,775.33,0.8
2020-05-29,03:05:00,DRY,3.70,15.20,13.0,775.50,1.0
2020-05-29,03:10:00,DRY,3.17,15.13,12.3,775.00,1.0
2020-05-29,03:15:00,DRY,1.95,15.05,13.0,775.00,0.2
2020-05-29,03:20:00,DRY,3.10,15.00,12.7,775.00,1.2
2020-05-29,03:25:00,DRY,3.40,14.90,9.5,775.00,1.2
2020-05-29,03:30:00,DRY,3.43,14.63,9.3,775.00,0.9
2020-05-29,03:35:00,DRY,4.20,14.75,10.0,775.00,0.8
2020-05-29,03:40:00,DRY,3.43,14.73,9.3,775.00,1.5
2020-05-29,03:45:00,DRY,4.50,14.55,9.5,775.00,1.4
2020-05-29,03:50:00,DRY,5.67,12.90,27.0,775.00,1.1
2020-05-29,03:55:00,DRY,4.55,13.75,14.0,775.00,0.9
2020-05-29,04:00:00,DRY,3.37,14.53,9.7,775.00,1.5
2020-05-29,04:05:00,DRY,3.20,14.90,6.5,775.00,1.2
2020-05-29,04:10:00,DRY,4.07,14.87,6.7,775.00,0.8
2020-05-29,04:15:00,DRY,4.50,14.65,8.5,775.00,1.1
2020-05-29,04:20:00,DRY,5.23,14.57,6.3,775.00,1.2
2020-05-29,04:25:00,DRY,5.85,14.60,5.0,775.00,1.1
2020-05-29,04:30:00,DRY,3.47,14.47,6.3,775.00,1.4
2020-05-29,04:35:00,DRY,4.10,14.55,6.5,775.00,1.8
2020-05-29,04:40:00,DRY,4.50,14.63,3.7,775.00,1.3
2020-05-29,04:45:00,DRY,3.70,14.55,3.0,775.00,1.8
2020-05-29,04:50:00,DRY,1.83,14.47,2.0,775.00,1.7
2020-05-29,04:55:00,DRY,2.90,14.45,2.0,775.00,1.0
2020-05-29,05:00:00,DRY,3.57,14.60,2.0,775.00,0.9
2020-05-29,05:05:00,DRY,3.10,14.35,3.0,775.00,1.2
2020-05-29,05:10:00,DRY,2.93,14.40,4.0,775.00,0.7
2020-05-29,05:15:00,DRY,2.85,14.40,4.0,775.00,0.8
2020-05-29,05:20:00,DRY,2.87,14.23,4.7,775.00,1.5
2020-05-29,05:25:00,DRY,3.45,14.25,5.0,775.00,0.6
2020-05-29,05:30:00,DRY,3.47,14.37,5.0,775.00,1.1
2020-05-29,05:35:00,DRY,2.40,14.45,5.5,775.00,1.5
2020-05-29,05:40:00,DRY,2.47,14.53,5.0,775.00,1.1
2020-05-29,05:45:00,DRY,2.15,14.45,6.0,775.00,1.4
2020-05-29,05:50:00,DRY,2.20,14.40,6.7,775.00,0.6
2020-05-29,05:55:00,DRY,2.65,14.35,7.5,775.00,1.1
2020-05-29,06:00:00,DRY,3.30,14.20,8.0,775.00,2.2
2020-05-29,06:05:00,DRY,3.05,14.20,8.0,775.00,2.3
2020-05-29,06:10:00,DRY,3.60,14.20,7.3,775.00,4.0
2020-05-29,06:15:00,DRY,2.80,14.10,7.0,775.00,5.1
2020-05-29,06:20:00,DRY,2.10,14.13,7.0,775.00,7.1
2020-05-29,06:25:00,DRY,2.65,14.10,6.5,775.00,9.5
2020-05-29,06:30:00,DRY,2.97,14.00,6.0,775.00,12.4
2020-05-29,06:35:00,DRY,3.30,14.05,6.0,775.00,29.0
2020-05-29,06:40:00,DRY,2.70,14.10,6.0,775.00,78.6
2020-05-29,06:45:00,DRY,4.30,14.10,6.0,775.00,108.8
2020-05-29,06:50:00,DRY,3.27,14.13,6.3,775.00,130.8
2020-05-29,06:55:00,DRY,4.00,14.20,6.0,775.00,160.8
2020-05-29,07:00:00,DRY,3.57,14.13,6.3,775.00,176.1
2020-05-29,07:05:00,DRY,2.90,14.10,6.0,775.00,198.3
2020-05-29,07:10:00,DRY,2.77,14.33,7.3,775.00,221.7
2020-05-29,07:15:00,DRY,3.15,14.40,7.0,775.00,242.1
2020-05-29,07:20:00,DRY,3.03,14.30,6.7,775.00,265.6
2020-05-29,07:25:00,DRY,3.25,14.40,7.0,775.00,287.4
2020-05-29,07:30:00,DRY,2.60,14.60,7.7,775.00,310.2
2020-05-29,07:35:00,DRY,1.45,14.70,8.0,775.00,333.5
2020-05-29,07:40:00,DRY,1.90,14.83,9.0,775.00,356.0
2020-05-29,07:45:00,DRY,1.15,15.25,10.0,775.00,377.9
2020-05-29,07:50:00,DRY,1.17,15.40,9.3,775.00,401.6
2020-05-29,07:55:00,DRY,2.35,15.35,9.0,775.00,424.9
2020-05-29,08:00:00,DRY,2.30,15.30,10.0,775.00,448.8
2020-05-29,08:05:00,DRY,1.90,15.25,10.0,775.00,472.7
2020-05-29,08:10:00,DRY,1.40,15.47,10.3,775.00,495.2
2020-05-29,08:15:00,DRY,1.30,15.90,10.0,775.00,516.8
2020-05-29,08:20:00,DRY,1.57,15.77,10.0,775.00,538.6
2020-05-29,08:25:00,DRY,0.80,16.10,10.5,775.00,560.0
2020-05-29,08:30:00,DRY,2.23,15.90,10.0,775.00,579.5
2020-05-29,08:35:00,DRY,2.35,16.05,10.5,775.00,600.3
2020-05-29,08:40:00,DRY,2.03,15.87,10.0,775.00,621.6
2020-05-29,08:45:00,DRY,0.75,16.10,10.0,775.00,641.2
2020-05-29,08:50:00,DRY,2.13,16.07,9.7,775.00,660.9
2020-05-29,08:55:00,DRY,1.90,16.45,10.0,775.00,682.1
2020-05-29,09:00:00,DRY,1.53,16.57,10.3,775.00,700.7
2020-05-29,09:05:00,DRY,1.70,16.75,10.0,775.00,720.7
2020-05-29,09:10:00,DRY,1.73,16.70,10.7,775.00,740.8
2020-05-29,09:15:00,DRY,2.50,17.10,10.0,775.00,759.8
2020-05-29,09:20:00,DRY,1.00,17.27,11.7,775.00,779.7
2020-05-29,09:25:00,DRY,1.80,17.25,9.5,775.00,798.4
2020-05-29,09:30:00,DRY,1.23,17.37,10.3,775.00,814.8
2020-05-29,09:35:00,DRY,2.75,17.75,12.0,775.00,831.8
2020-05-29,09:40:00,DRY,2.80,17.57,10.3,775.00,849.7
2020-05-29,09:45:00,DRY,2.15,17.60,11.0,775.00,867.2
2020-05-29,09:50:00,DRY,2.33,17.83,10.3,774.67,884.8
2020-05-29,09:55:00,DRY,2.45,17.75,11.0,775.00,898.8
2020-05-29,10:00:00,DRY,2.50,18.25,13.0,774.50,919.0
2020-05-29,10:05:00,DRY,1.70,18.40,14.0,775.00,932.3
2020-05-29,10:10:00,DRY,1.67,18.27,13.7,774.67,946.5
2020-05-29,10:15:00,DRY,1.70,19.00,14.0,774.00,958.3
2020-05-29,10:20:00,DRY,1.33,18.73,14.7,774.33,973.2
2020-05-29,10:25:00,DRY,1.90,18.70,16.5,774.00,987.8
2020-05-29,10:30:00,DRY,2.67,19.13,20.7,774.00,999.9
2020-05-29,10:35:00,DRY,1.95,18.80,19.5,774.00,1014.5
2020-05-29,10:40:00,DRY,2.47,18.70,22.7,774.00,1027.2
2020-05-29,10:45:00,DRY,3.40,18.55,23.5,774.00,1037.9
2020-05-29,10:50:00,DRY,2.47,18.43,18.7,774.00,1050.7
2020-05-29,10:55:00,DRY,3.35,18.45,21.0,774.00,1061.4
2020-05-29,11:00:00,DRY,2.40,19.00,22.7,774.00,1072.2
2020-05-29,11:05:00,DRY,1.70,19.15,20.0,774.50,1082.8
2020-05-29,11:10:00,DRY,2.77,18.73,24.0,774.33,1094.5
2020-05-29,11:15:00,DRY,2.00,18.90,17.5,774.50,1107.0
2020-05-29,11:20:00,DRY,2.73,19.17,25.0,775.00,1113.3
2020-05-29,11:25:00,DRY,2.15,19.15,19.0,774.00,1122.3
2020-05-29,11:30:00,DRY,1.40,18.43,25.3,774.00,1129.1
2020-05-29,11:35:00,DRY,1.65,19.05,16.5,774.00,1142.1
2020-05-29,11:40:00,DRY,2.50,19.43,25.7,774.00,1146.9
2020-05-29,11:45:00,DRY,2.50,19.05,29.5,774.00,1153.2
2020-05-29,11:50:00,DRY,2.73,19.07,27.3,774.00,1157.0
2020-05-29,11:55:00,DRY,1.55,18.95,29.0,774.00,1159.6
2020-05-29,12:00:00,DRY,2.57,19.23,25.3,774.00,1171.2
2020-05-29,12:05:00,DRY,1.25,19.15,23.5,774.00,1179.3
2020-05-29,12:10:00,DRY,2.27,19.57,26.0,774.00,1183.6
2020-05-29,12:15:00,DRY,1.50,19.65,25.5,774.00,1186.2
2020-05-29,12:20:00,DRY,2.77,19.07,32.0,774.00,1189.2
2020-05-29,12:25:00,DRY,1.30,18.60,29.0,774.00,1187.2
2020-05-29,12:30:00,DRY,1.57,18.73,24.7,774.00,1195.8
2020-05-29,12:35:00,DRY,2.50,18.85,32.0,774.00,1196.2
2020-05-29,12:40:00,DRY,2.10,19.23,26.7,774.00,1198.5
2020-05-29,12:45:00,DRY,1.15,18.70,32.5,774.00,1201.2
2020-05-29,12:50:00,DRY,1.77,19.23,28.0,774.00,1204.3
2020-05-29,12:55:00,DRY,2.55,19.70,23.5,774.00,1203.2
2020-05-29,13:00:00,DRY,1.30,19.27,33.0,774.00,1204.4
2020-05-29,13:05:00,DRY,1.80,18.85,34.5,774.00,1204.3
2020-05-29,13:10:00,DRY,1.83,19.33,32.0,774.00,1202.2
2020-05-29,13:15:00,DRY,2.70,18.90,32.0,774.00,1201.9
2020-05-29,13:20:00,DRY,0.93,18.87,30.7,774.00,1199.6
2020-05-29,13:25:00,DRY,2.35,19.85,30.5,774.00,1202.7
2020-05-29,13:30:00,DRY,2.80,19.50,20.0,774.00,1207.2
2020-05-29,13:35:00,DRY,1.20,19.70,16.0,774.00,1202.7
2020-05-29,13:40:00,DRY,2.53,20.13,24.7,774.00,1195.2
2020-05-29,13:45:00,DRY,0.65,20.50,27.5,774.00,1194.0
2020-05-29,13:50:00,DRY,1.60,19.37,32.7,774.00,1193.5
2020-05-29,13:55:00,DRY,1.95,18.85,35.0,774.00,1190.5
2020-05-29,14:00:00,DRY,1.67,18.80,36.0,774.00,1185.7
2020-05-29,14:05:00,DRY,2.40,18.95,29.5,774.00,1181.2
2020-05-29,14:10:00,DRY,1.90,17.87,30.0,774.00,1175.8
2020-05-29,14:15:00,DRY,2.25,18.05,23.0,774.00,1173.1
2020-05-29,14:20:00,DRY,2.07,18.80,33.3,774.00,1166.6
2020-05-29,14:25:00,DRY,3.35,19.35,21.5,774.00,1161.4
2020-05-29,14:30:00,DRY,2.10,19.17,29.3,774.00,1154.3
2020-05-29,14:35:00,DRY,1.60,19.85,33.5,774.00,1145.8
2020-05-29,14:40:00,DRY,1.90,19.53,34.0,774.00,1136.7
2020-05-29,14:45:00,DRY,1.70,19.10,39.0,774.00,1129.3
2020-05-29,14:50:00,DRY,2.47,18.90,26.3,773.67,1120.2
2020-05-29,14:55:00,DRY,3.15,18.45,36.0,774.00,1107.3
2020-05-29,15:00:00,DRY,2.33,18.47,39.7,774.00,1100.4
2020-05-29,15:05:00,DRY,2.35,17.95,37.5,773.50,1085.6
2020-05-29,15:10:00,DRY,1.30,18.50,39.3,773.33,1073.2
2020-05-29,15:15:00,DRY,1.65,19.20,27.0,773.50,1068.0
2020-05-29,15:20:00,DRY,1.73,18.70,35.3,773.00,1057.5
2020-05-29,15:25:00,DRY,1.65,18.85,37.0,773.00,1043.0
2020-05-29,15:30:00,DRY,1.40,17.97,36.7,773.00,1030.6
2020-05-29,15:35:00,DRY,2.75,18.05,37.0,773.00,1017.2
2020-05-29,15:40:00,DRY,1.90,18.30,35.7,773.00,1004.6
2020-05-29,15:45:00,DRY,1.15,18.20,36.0,773.00,993.8
2020-05-29,15:50:00,DRY,2.00,18.60,32.7,773.00,976.3
2020-05-29,15:55:00,DRY,2.05,18.40,35.0,773.00,964.3
2020-05-29,16:00:00,DRY,1.63,18.17,32.7,773.00,954.3
2020-05-29,16:05:00,DRY,2.80,18.40,36.5,773.00,938.2
2020-05-29,16:10:00,DRY,2.40,18.27,36.7,773.00,930.2
2020-05-29,16:15:00,DRY,1.45,17.60,35.0,773.00,880.5
2020-05-29,16:20:00,DRY,1.93,18.20,34.7,773.00,665.6
2020-05-29,16:25:00,DRY,1.60,18.10,35.0,773.00,395.8